Epoch 2014 May 23.0 TT = JDT 2456800.5
T 2014 May 29.87841 TT MPC
q 0.8259015 (2000.0) P Q
n 0.22285920 Peri. 222.73985 +0.74617597 +0.65839704
a 2.6943189 Node 95.80763 -0.58091003 +0.71629397
e 0.6934656 Incl. 5.69160 -0.32521526 +0.23116290
P 4.42
From 589 observations 2005 May 6-2014 Aug. 2, mean residual 0".5.
Finding Charts
Magnitudes Graph
H = 17.5 G = 0.15 [ ,-87] ( - 2014 Mar. 3)
m1 = 16.0 + 5 log d + 23.0 log r [-87, 85] (2014 Mar. 3 - 2014 Aug. 22)
H = 17.5 G = 0.15 [ 85, ] (2014 Aug. 22 - )